Simultaneous Nadir Overpasses (SNOs) Predictions

Prediction of SNOs between GOES-14 and NOAA-20 Satellite Orbit:

Table of predicted SNOs for the next 14.0 days since TLE Epoch: 3/27/2021
Index Date Time (GOES-14) GOES-14 Lat,Lon NOAA-20 Lat,Lon Distance(km) Time Diff (sec)
1 03/27/2021 20:14:30 -0.12,-104.30 0.21,-102.72 180.33 80
2 03/29/2021 08:36:19 0.12,-104.36 0.93,-108.00 414.32 80
3 03/30/2021 08:20:14 0.12,-104.37 -0.06,-103.47 102.12 80
4 04/01/2021 20:20:47 -0.12,-104.31 -0.13,-104.25 6.72 80
5 04/04/2021 08:23:52 0.13,-104.34 0.28,-105.00 75.13 80
6 04/05/2021 08:07:48 0.13,-104.34 -0.71,-100.47 441.20 80
7 04/06/2021 20:29:45 -0.14,-104.30 -0.47,-105.78 168.06 80
8 04/07/2021 20:08:20 -0.14,-104.29 0.53,-101.25 346.91 80
9 04/09/2021 08:30:10 0.14,-104.32 0.62,-106.53 251.37 80
